Location: Boca de Tacagua
(10.5333°N, 66.9833°W)
Time: 04:44:14
(UTC+00:00)

Cosmos 1536 - Pass Details

Date: 06 July 2022
Orbit: 536 x 556 km, 82.5° (Epoch: 14 August)

Event Time Altitude Azimuth Distance (km) Brightness Sun altitude
Exits shadow 08:30:25 58° 328° (NNW) 644 3.0 -23.0°
Drops below altitude 10° 08:33:49 10° 358° (N) 1,829 5.8 -22.3°
Sets 08:36:00 0° 1° (N) 2,724 6.8 -21.8°
